QPF
0.00 0.00 0.00 0.00 0.00 0.00 0.00 0.00 0.00 0.00 0.00 0.00 0.00 0.00 0.00 0.01 0.01 0.01 0.00 0.00 0.00 0.00 0.00 0.00 0.00 0.00 0.00 0.00 0.00 0.00 0.01 0.01 0.00 0.00 0.00 0.00 0.00 0.00 0.00 0.00 0.00 0.00 0.00 0.00 0.00 0.00 0.01 0.01 0.01
0.00 0.00 0.00 0.00 0.00 0.00 0.00 0.00 0.00 0.00 0.00 0.00 0.00 0.00 0.00 0.00 0.00 0.00 0.00 0.00 0.00 0.00 0.00 0.00 0.00 0.00 0.00 0.00 0.00 0.00 0.00 0.00 0.00 0.00 0.00 0.00 0.00 0.00 0.00 0.00 0.00 0.00 0.00 0.00 0.00 0.00 0.00 0.00 0.00
0.00 0.00 0.00 0.00 0.00 0.00 0.00 0.00 0.00 0.00 0.00 0.00 0.00 0.00 0.00 0.00 0.00 0.00 0.00 0.00 0.00 0.00 0.00 0.00 0.00 0.00 0.00 0.00 0.00 0.00 0.00 0.00 0.00 0.00 0.00 0.00 0.00 0.00 0.00 0.00 0.00 0.00 0.00 0.00 0.00 0.00 0.00 0.00 0.00
0.00 0.00 0.00 0.00 0.00 0.00 0.00 0.00 0.00 0.00 0.00 0.00 0.00 0.00 0.00 0.00 0.00 0.00 0.00 0.00 0.00 0.00 0.00 0.00 0.00 0.00 0.00 0.00 0.00 0.00 0.00 0.00 0.00 0.00 0.00 0.00 0.00 0.00 0.00 0.00 0.01 0.01 0.01 0.00 0.00 0.00 0.00 0.00 0.00
0.00 0.00 0.00 0.00 0.00 0.00 0.00 0.00 0.00 0.00 0.00 0.00 0.00 0.00 0.00 0.00 0.00 0.00 0.00 0.00 0.00 0.00 0.00 0.00 0.01 0.01 0.00 0.00 0.00 0.00 0.00 0.00 0.00 0.00 0.00 0.00 0.00 0.00 0.00 0.01 0.01 0.01 0.01 0.01 0.01 0.01 0.01 0.00 0.00
0.00 0.00 0.00 0.00 0.00 0.00 0.00 0.00 0.00 0.00 0.00 0.00 0.00 0.00 0.00 0.00 0.00 0.00 0.00 0.00 0.00 0.00 0.00 0.01 0.02 0.01 0.01 0.00 0.00 0.00 0.01 0.01 0.01 0.01 0.00 0.00 0.00 0.01 0.01 0.01 0.01 0.01 0.01 0.01 0.01 0.01 0.01 0.01 0.00
0.00 0.00 0.00 0.00 0.00 0.00 0.00 0.00 0.00 0.00 0.01 0.01 0.00 0.00 0.00 0.00 0.01 0.00 0.00 0.00 0.00 0.00 0.01 0.02 0.02 0.02 0.02 0.02 0.02 0.02 0.01 0.02 0.02 0.02 0.01 0.01 0.01 0.01 0.01 0.01 0.02 0.01 0.02 0.02 0.01 0.01 0.01 0.01 0.01
0.00 0.00 0.00 0.00 0.00 0.00 0.00 0.00 0.00 0.00 0.00 0.00 0.01 0.01 0.01 0.00 0.00 0.00 0.00 0.00 0.01 0.01 0.02 0.03 0.04 0.04 0.04 0.04 0.03 0.03 0.03 0.03 0.03 0.03 0.03 0.03 0.02 0.02 0.02 0.03 0.03 0.03 0.03 0.03 0.03 0.02 0.02 0.01 0.01
0.00 0.00 0.00 0.00 0.00 0.00 0.00 0.00 0.00 0.00 0.00 0.01 0.00 0.00 0.00 0.01 0.01 0.01 0.01 0.01 0.01 0.02 0.03 0.04 0.04 0.05 0.05 0.04 0.03 0.03 0.04 0.03 0.03 0.04 0.04 0.05 0.05 0.05 0.05 0.04 0.04 0.05 0.06 0.05 0.05 0.04 0.04 0.03 0.03
0.00 0.00 0.00 0.00 0.00 0.00 0.00 0.00 0.00 0.00 0.00 0.01 0.00 0.00 0.00 0.01 0.03 0.02 0.01 0.01 0.02 0.02 0.02 0.04 0.04 0.04 0.04 0.04 0.05 0.08 0.08 0.08 0.07 0.08 0.09 0.09 0.09 0.09 0.07 0.06 0.06 0.07 0.09 0.09 0.08 0.08 0.07 0.06 0.06
0.00 0.00 0.00 0.00 0.00 0.00 0.00 0.00 0.00 0.00 0.00 0.01 0.01 0.00 0.02 0.06 0.06 0.03 0.03 0.02 0.02 0.02 0.01 0.01 0.02 0.04 0.04 0.06 0.08 0.13 0.13 0.12 0.12 0.13 0.14 0.13 0.14 0.13 0.10 0.10 0.09 0.08 0.09 0.10 0.12 0.13 0.11 0.10 0.11
0.00 0.00 0.00 0.00 0.00 0.00 0.00 0.00 0.00 0.00 0.00 0.00 0.00 0.00 0.01 0.02 0.02 0.03 0.03 0.04 0.05 0.04 0.03 0.02 0.03 0.05 0.06 0.08 0.09 0.09 0.12 0.14 0.15 0.15 0.12 0.14 0.16 0.15 0.14 0.14 0.13 0.12 0.11 0.11 0.14 0.16 0.17 0.16 0.14
0.00 0.00 0.00 0.00 0.00 0.00 0.00 0.00 0.00 0.00 0.00 0.00 0.00 0.01 0.01 0.02 0.03 0.04 0.04 0.06 0.07 0.08 0.07 0.06 0.06 0.07 0.08 0.09 0.10 0.13 0.15 0.15 0.15 0.16 0.15 0.12 0.13 0.15 0.16 0.17 0.17 0.15 0.15 0.14 0.15 0.16 0.17 0.17 0.17
0.00 0.00 0.00 0.00 0.00 0.00 0.00 0.01 0.01 0.00 0.01 0.01 0.01 0.02 0.02 0.03 0.03 0.04 0.05 0.06 0.06 0.07 0.09 0.10 0.09 0.08 0.08 0.11 0.15 0.18 0.17 0.19 0.17 0.17 0.18 0.20 0.19 0.20 0.17 0.15 0.14 0.14 0.16 0.15 0.15 0.17 0.19 0.16 0.15
0.00 0.00 0.00 0.00 0.00 0.00 0.00 0.01 0.01 0.01 0.02 0.01 0.02 0.03 0.04 0.04 0.04 0.04 0.04 0.04 0.05 0.07 0.09 0.09 0.10 0.11 0.14 0.17 0.17 0.18 0.18 0.20 0.19 0.21 0.25 0.24 0.23 0.23 0.17 0.14 0.12 0.13 0.14 0.12 0.11 0.13 0.17 0.18 0.14
0.00 0.00 0.00 0.00 0.00 0.00 0.01 0.03 0.03 0.03 0.03 0.03 0.03 0.04 0.04 0.04 0.03 0.04 0.04 0.04 0.04 0.07 0.10 0.10 0.08 0.09 0.13 0.16 0.16 0.20 0.23 0.18 0.15 0.15 0.15 0.12 0.11 0.11 0.11 0.09 0.09 0.12 0.11 0.11 0.09 0.09 0.10 0.12 0.13
0.00 0.00 0.00 0.00 0.00 0.00 0.01 0.04 0.04 0.04 0.03 0.04 0.04 0.04 0.04 0.03 0.03 0.03 0.03 0.04 0.04 0.08 0.12 0.12 0.08 0.09 0.10 0.11 0.13 0.15 0.15 0.14 0.12 0.11 0.10 0.09 0.07 0.07 0.06 0.06 0.06 0.07 0.06 0.06 0.06 0.07 0.06 0.06 0.07
0.00 0.00 0.00 0.00 0.00 0.01 0.01 0.03 0.04 0.05 0.04 0.05 0.05 0.05 0.06 0.04 0.03 0.03 0.03 0.05 0.05 0.06 0.09 0.08 0.06 0.07 0.08 0.07 0.06 0.08 0.10 0.10 0.09 0.09 0.07 0.06 0.05 0.05 0.05 0.05 0.04 0.04 0.04 0.04 0.05 0.05 0.04 0.04 0.05
0.00 0.00 0.00 0.00 0.00 0.01 0.01 0.02 0.04 0.05 0.04 0.04 0.05 0.07 0.05 0.04 0.04 0.05 0.04 0.04 0.04 0.04 0.04 0.04 0.04 0.04 0.03 0.03 0.03 0.04 0.04 0.04 0.03 0.02 0.01 0.02 0.03 0.04 0.04 0.06 0.05 0.05 0.04 0.04 0.03 0.03 0.04 0.04 0.06
0.00 0.00 0.01 0.01 0.00 0.01 0.02 0.02 0.03 0.04 0.04 0.04 0.04 0.05 0.05 0.04 0.03 0.03 0.03 0.03 0.03 0.02 0.01 0.02 0.02 0.02 0.01 0.02 0.02 0.02 0.02 0.01 0.01 0.01 0.01 0.01 0.01 0.01 0.02 0.02 0.03 0.03 0.03 0.04 0.04 0.04 0.04 0.04 0.05
0.00 0.00 0.01 0.01 0.00 0.01 0.02 0.03 0.03 0.03 0.04 0.03 0.03 0.05 0.06 0.05 0.04 0.03 0.02 0.01 0.01 0.02 0.01 0.01 0.01 0.02 0.02 0.02 0.01 0.01 0.02 0.01 0.01 0.01 0.01 0.01 0.01 0.00 0.00 0.00 0.00 0.01 0.01 0.03 0.05 0.05 0.04 0.03 0.04
0.00 0.00 0.00 0.00 0.02 0.02 0.02 0.04 0.03 0.03 0.03 0.03 0.03 0.03 0.03 0.04 0.03 0.03 0.02 0.01 0.00 0.00 0.01 0.01 0.02 0.02 0.02 0.01 0.02 0.02 0.02 0.02 0.01 0.01 0.01 0.01 0.01 0.01 0.01 0.00 0.00 0.01 0.02 0.02 0.03 0.03 0.03 0.03 0.04
0.00 0.00 0.00 0.00 0.01 0.01 0.01 0.01 0.02 0.02 0.03 0.02 0.02 0.02 0.02 0.02 0.02 0.01 0.01 0.01 0.00 0.00 0.01 0.01 0.01 0.01 0.01 0.01 0.02 0.02 0.01 0.01 0.01 0.00 0.00 0.00 0.00 0.00 0.00 0.00 0.01 0.01 0.01 0.01 0.01 0.02 0.02 0.03 0.04
0.00 0.00 0.00 0.00 0.00 0.02 0.01 0.01 0.01 0.01 0.02 0.01 0.01 0.01 0.01 0.01 0.00 0.00 0.00 0.00 0.00 0.00 0.00 0.01 0.01 0.01 0.01 0.01 0.01 0.01 0.01 0.01 0.00 0.00 0.00 0.00 0.00 0.00 0.00 0.00 0.00 0.00 0.00 0.00 0.01 0.01 0.02 0.02 0.03
0.00 0.00 0.01 0.01 0.02 0.02 0.00 0.00 0.00 0.00 0.00 0.00 0.00 0.01 0.00 0.00 0.00 0.00 0.00 0.00 0.00 0.00 0.00 0.01 0.01 0.01 0.01 0.01 0.01 0.01 0.01 0.01 0.00 0.00 0.00 0.00 0.00 0.00 0.00 0.00 0.00 0.00 0.00 0.00 0.00 0.01 0.01 0.01 0.02
0.00 0.00 0.01 0.02 0.02 0.01 0.00 0.00 0.00 0.00 0.00 0.00 0.00 0.00 0.00 0.00 0.00 0.00 0.00 0.00 0.00 0.00 0.00 0.00 0.00 0.01 0.01 0.00 0.00 0.01 0.00 0.00 0.00 0.00 0.00 0.00 0.00 0.00 0.00 0.00 0.00 0.00 0.00 0.00 0.00 0.00 0.00 0.01 0.01
0.00 0.00 0.00 0.01 0.01 0.00 0.00 0.00 0.00 0.00 0.00 0.00 0.00 0.00 0.00 0.00 0.00 0.00 0.00 0.00 0.00 0.00 0.00 0.00 0.00 0.00 0.01 0.00 0.00 0.00 0.00 0.00 0.00 0.00 0.00 0.00 0.00 0.00 0.00 0.00 0.00 0.00 0.00 0.00 0.01 0.00 0.00 0.01 0.01
0.00 0.00 0.00 0.01 0.01 0.00 0.00 0.00 0.00 0.00 0.00 0.00 0.00 0.00 0.00 0.00 0.00 0.00 0.00 0.00 0.00 0.00 0.00 0.00 0.00 0.00 0.00 0.00 0.00 0.00 0.00 0.00 0.00 0.00 0.00 0.00 0.00 0.00 0.00 0.00 0.00 0.00 0.00 0.01 0.01 0.01 0.01 0.01 0.01
0.00 0.00 0.00 0.01 0.00 0.00 0.00 0.00 0.00 0.00 0.00 0.00 0.00 0.00 0.00 0.00 0.00 0.00 0.00 0.00 0.00 0.00 0.00 0.00 0.00 0.00 0.00 0.00 0.00 0.00 0.00 0.00 0.00 0.00 0.00 0.00 0.00 0.00 0.00 0.00 0.00 0.00 0.00 0.01 0.01 0.01 0.01 0.01 0.01
0.00 0.00 0.00 0.00 0.00 0.00 0.00 0.00 0.00 0.00 0.00 0.00 0.00 0.00 0.00 0.00 0.00 0.00 0.00 0.00 0.00 0.00 0.00 0.00 0.00 0.00 0.00 0.00 0.00 0.00 0.00 0.00 0.00 0.00 0.00 0.00 0.00 0.00 0.00 0.00 0.00 0.00 0.00 0.00 0.00 0.01 0.01 0.01 0.01
MSLP
1012.10 1012.59 1013.05 1013.38 1013.50 1013.35 1012.94 1012.30 1011.54 1010.77 1010.11 1009.63 1009.38 1009.33 1009.45 1009.66 1009.88 1010.09 1010.24 1010.38 1010.54 1010.77 1011.12 1011.57 1012.13 1012.72 1013.29 1013.76 1014.11 1014.33 1014.44 1014.50 1014.57 1014.70 1014.92 1015.23 1015.59 1015.97 1016.30 1016.56 1016.72 1016.80 1016.82 1016.84 1016.88 1016.95 1017.06 1017.19 1017.30
1012.16 1012.68 1013.15 1013.44 1013.48 1013.22 1012.69 1011.94 1011.08 1010.25 1009.56 1009.09 1008.87 1008.88 1009.06 1009.33 1009.61 1009.86 1010.05 1010.23 1010.43 1010.70 1011.10 1011.63 1012.26 1012.94 1013.59 1014.15 1014.57 1014.84 1014.99 1015.06 1015.12 1015.22 1015.40 1015.65 1015.94 1016.24 1016.49 1016.68 1016.80 1016.85 1016.88 1016.92 1017.00 1017.12 1017.28 1017.44 1017.57
1012.29 1012.82 1013.24 1013.45 1013.39 1013.02 1012.39 1011.56 1010.66 1009.82 1009.15 1008.72 1008.56 1008.63 1008.87 1009.19 1009.51 1009.79 1010.00 1010.19 1010.41 1010.72 1011.15 1011.73 1012.42 1013.17 1013.89 1014.52 1015.00 1015.33 1015.52 1015.62 1015.69 1015.77 1015.90 1016.09 1016.31 1016.53 1016.71 1016.83 1016.90 1016.93 1016.97 1017.03 1017.14 1017.31 1017.50 1017.68 1017.81
1012.48 1012.97 1013.31 1013.43 1013.25 1012.79 1012.07 1011.21 1010.30 1009.50 1008.89 1008.54 1008.46 1008.60 1008.90 1009.26 1009.61 1009.89 1010.11 1010.30 1010.53 1010.84 1011.29 1011.89 1012.61 1013.39 1014.15 1014.82 1015.34 1015.71 1015.93 1016.06 1016.14 1016.22 1016.33 1016.47 1016.63 1016.79 1016.91 1016.98 1017.02 1017.04 1017.08 1017.17 1017.32 1017.51 1017.73 1017.91 1018.03
1012.70 1013.12 1013.36 1013.36 1013.08 1012.53 1011.77 1010.91 1010.05 1009.32 1008.80 1008.55 1008.56 1008.78 1009.12 1009.51 1009.87 1010.15 1010.37 1010.56 1010.77 1011.08 1011.53 1012.11 1012.82 1013.58 1014.33 1014.99 1015.52 1015.90 1016.14 1016.29 1016.38 1016.47 1016.58 1016.71 1016.84 1016.96 1017.05 1017.10 1017.12 1017.15 1017.21 1017.32 1017.49 1017.71 1017.92 1018.11 1018.20
1012.91 1013.24 1013.36 1013.25 1012.88 1012.28 1011.52 1010.69 1009.91 1009.28 1008.88 1008.73 1008.82 1009.09 1009.47 1009.88 1010.24 1010.52 1010.73 1010.92 1011.12 1011.42 1011.83 1012.38 1013.03 1013.74 1014.42 1015.03 1015.52 1015.88 1016.12 1016.27 1016.39 1016.49 1016.61 1016.75 1016.88 1017.00 1017.08 1017.14 1017.17 1017.22 1017.30 1017.44 1017.63 1017.85 1018.06 1018.22 1018.29
1013.08 1013.30 1013.31 1013.10 1012.66 1012.04 1011.31 1010.56 1009.88 1009.36 1009.06 1009.00 1009.16 1009.47 1009.86 1010.27 1010.63 1010.92 1011.13 1011.32 1011.53 1011.81 1012.19 1012.67 1013.25 1013.86 1014.44 1014.96 1015.37 1015.68 1015.89 1016.04 1016.17 1016.30 1016.44 1016.60 1016.76 1016.89 1016.99 1017.07 1017.13 1017.21 1017.32 1017.48 1017.69 1017.91 1018.10 1018.24 1018.27
1013.16 1013.28 1013.19 1012.91 1012.44 1011.84 1011.17 1010.51 1009.93 1009.52 1009.32 1009.32 1009.50 1009.82 1010.21 1010.61 1010.97 1011.26 1011.50 1011.71 1011.93 1012.20 1012.55 1012.98 1013.46 1013.96 1014.43 1014.83 1015.15 1015.39 1015.56 1015.70 1015.83 1015.98 1016.15 1016.33 1016.51 1016.67 1016.80 1016.90 1017.00 1017.11 1017.25 1017.43 1017.64 1017.85 1018.03 1018.13 1018.13
1013.15 1013.16 1013.00 1012.68 1012.22 1011.67 1011.09 1010.53 1010.06 1009.74 1009.60 1009.63 1009.81 1010.11 1010.47 1010.85 1011.20 1011.51 1011.78 1012.03 1012.29 1012.58 1012.91 1013.29 1013.68 1014.08 1014.43 1014.72 1014.94 1015.11 1015.24 1015.35 1015.48 1015.64 1015.82 1016.02 1016.22 1016.39 1016.54 1016.67 1016.79 1016.93 1017.09 1017.29 1017.50 1017.70 1017.85 1017.92 1017.89
1013.02 1012.96 1012.75 1012.43 1012.01 1011.55 1011.07 1010.62 1010.26 1010.01 1009.89 1009.91 1010.06 1010.31 1010.62 1010.96 1011.31 1011.64 1011.96 1012.26 1012.57 1012.90 1013.24 1013.58 1013.92 1014.22 1014.48 1014.68 1014.82 1014.93 1015.02 1015.11 1015.23 1015.39 1015.57 1015.77 1015.96 1016.14 1016.29 1016.42 1016.56 1016.71 1016.88 1017.08 1017.29 1017.48 1017.60 1017.64 1017.57
1012.81 1012.69 1012.47 1012.18 1011.85 1011.49 1011.13 1010.80 1010.53 1010.33 1010.21 1010.20 1010.28 1010.45 1010.70 1010.99 1011.33 1011.68 1012.05 1012.42 1012.79 1013.16 1013.52 1013.86 1014.16 1014.40 1014.60 1014.73 1014.82 1014.89 1014.95 1015.03 1015.14 1015.28 1015.45 1015.63 1015.80 1015.95 1016.09 1016.22 1016.35 1016.50 1016.67 1016.87 1017.06 1017.23 1017.33 1017.33 1017.24
1012.54 1012.39 1012.20 1011.98 1011.75 1011.52 1011.30 1011.09 1010.89 1010.72 1010.60 1010.53 1010.53 1010.61 1010.77 1011.01 1011.33 1011.69 1012.10 1012.52 1012.95 1013.37 1013.76 1014.10 1014.38 1014.61 1014.77 1014.87 1014.94 1014.98 1015.04 1015.11 1015.20 1015.33 1015.47 1015.61 1015.75 1015.87 1015.98 1016.08 1016.20 1016.34 1016.51 1016.69 1016.87 1017.01 1017.08 1017.06 1016.93
1012.27 1012.13 1011.99 1011.86 1011.76 1011.67 1011.59 1011.50 1011.38 1011.24 1011.09 1010.96 1010.87 1010.86 1010.93 1011.11 1011.38 1011.74 1012.17 1012.62 1013.09 1013.54 1013.95 1014.30 1014.58 1014.80 1014.95 1015.05 1015.12 1015.17 1015.22 1015.29 1015.38 1015.48 1015.58 1015.69 1015.78 1015.87 1015.94 1016.03 1016.13 1016.26 1016.42 1016.59 1016.75 1016.86 1016.90 1016.85 1016.69
1012.06 1011.95 1011.88 1011.87 1011.91 1011.98 1012.03 1012.05 1012.01 1011.89 1011.72 1011.53 1011.36 1011.26 1011.25 1011.35 1011.57 1011.90 1012.31 1012.77 1013.24 1013.69 1014.10 1014.45 1014.73 1014.95 1015.10 1015.22 1015.30 1015.37 1015.43 1015.50 1015.58 1015.65 1015.73 1015.80 1015.85 1015.90 1015.96 1016.03 1016.12 1016.25 1016.40 1016.56 1016.70 1016.80 1016.81 1016.72 1016.53
1011.93 1011.87 1011.90 1012.01 1012.20 1012.41 1012.61 1012.73 1012.76 1012.67 1012.49 1012.26 1012.02 1011.83 1011.74 1011.77 1011.93 1012.20 1012.56 1012.98 1013.41 1013.84 1014.22 1014.55 1014.82 1015.04 1015.20 1015.33 1015.43 1015.52 1015.59 1015.66 1015.72 1015.77 1015.82 1015.86 1015.89 1015.92 1015.97 1016.05 1016.15 1016.28 1016.43 1016.58 1016.72 1016.79 1016.78 1016.67 1016.45
1011.91 1011.91 1012.04 1012.28 1012.60 1012.95 1013.27 1013.49 1013.58 1013.53 1013.35 1013.09 1012.80 1012.55 1012.39 1012.35 1012.43 1012.63 1012.92 1013.27 1013.64 1014.00 1014.33 1014.62 1014.86 1015.07 1015.24 1015.37 1015.49 1015.58 1015.66 1015.71 1015.76 1015.79 1015.81 1015.83 1015.85 1015.89 1015.95 1016.04 1016.16 1016.31 1016.48 1016.63 1016.75 1016.81 1016.79 1016.65 1016.42
1011.95 1012.04 1012.26 1012.62 1013.07 1013.53 1013.95 1014.26 1014.41 1014.38 1014.21 1013.93 1013.62 1013.33 1013.12 1013.01 1013.02 1013.15 1013.35 1013.61 1013.89 1014.17 1014.43 1014.67 1014.88 1015.06 1015.22 1015.36 1015.48 1015.57 1015.64 1015.68 1015.70 1015.70 1015.70 1015.71 1015.73 1015.78 1015.87 1015.99 1016.15 1016.32 1016.50 1016.66 1016.77 1016.82 1016.78 1016.63 1016.39
1012.03 1012.19 1012.51 1012.97 1013.52 1014.08 1014.57 1014.94 1015.12 1015.12 1014.96 1014.69 1014.36 1014.05 1013.81 1013.66 1013.61 1013.66 1013.79 1013.96 1014.15 1014.35 1014.54 1014.72 1014.89 1015.05 1015.20 1015.34 1015.45 1015.53 1015.58 1015.59 1015.58 1015.55 1015.53 1015.53 1015.56 1015.63 1015.75 1015.91 1016.09 1016.29 1016.48 1016.63 1016.74 1016.77 1016.71 1016.57 1016.32
1012.09 1012.32 1012.73 1013.27 1013.89 1014.52 1015.06 1015.45 1015.66 1015.67 1015.51 1015.24 1014.92 1014.61 1014.35 1014.18 1014.10 1014.10 1014.16 1014.26 1014.38 1014.50 1014.63 1014.77 1014.91 1015.06 1015.20 1015.33 1015.44 1015.51 1015.53 1015.51 1015.47 1015.41 1015.36 1015.35 1015.38 1015.47 1015.61 1015.80 1016.00 1016.21 1016.40 1016.54 1016.63 1016.64 1016.57 1016.42 1016.19
1012.08 1012.40 1012.88 1013.48 1014.16 1014.81 1015.36 1015.75 1015.95 1015.95 1015.79 1015.52 1015.21 1014.91 1014.66 1014.49 1014.40 1014.38 1014.41 1014.46 1014.54 1014.62 1014.71 1014.82 1014.95 1015.10 1015.25 1015.38 1015.49 1015.54 1015.55 1015.50 1015.42 1015.33 1015.26 1015.23 1015.25 1015.35 1015.50 1015.69 1015.90 1016.11 1016.27 1016.39 1016.44 1016.43 1016.35 1016.20 1015.98
1012.01 1012.39 1012.94 1013.59 1014.29 1014.94 1015.48 1015.84 1016.01 1015.97 1015.79 1015.51 1015.21 1014.92 1014.70 1014.55 1014.48 1014.47 1014.50 1014.55 1014.61 1014.68 1014.77 1014.88 1015.01 1015.17 1015.34 1015.49 1015.60 1015.66 1015.65 1015.58 1015.48 1015.36 1015.26 1015.20 1015.22 1015.30 1015.44 1015.62 1015.81 1015.98 1016.11 1016.18 1016.19 1016.14 1016.04 1015.89 1015.70
1011.90 1012.35 1012.95 1013.63 1014.33 1014.96 1015.46 1015.76 1015.86 1015.77 1015.55 1015.25 1014.95 1014.69 1014.50 1014.39 1014.36 1014.39 1014.45 1014.52 1014.59 1014.68 1014.78 1014.91 1015.07 1015.26 1015.45 1015.62 1015.75 1015.82 1015.81 1015.74 1015.62 1015.48 1015.36 1015.28 1015.26 1015.32 1015.43 1015.57 1015.72 1015.84 1015.92 1015.94 1015.90 1015.80 1015.68 1015.52 1015.35
1011.80 1012.30 1012.94 1013.64 1014.33 1014.92 1015.35 1015.57 1015.59 1015.43 1015.15 1014.83 1014.52 1014.28 1014.13 1014.07 1014.10 1014.18 1014.29 1014.41 1014.52 1014.64 1014.77 1014.93 1015.12 1015.33 1015.55 1015.75 1015.90 1015.99 1015.99 1015.92 1015.80 1015.65 1015.51 1015.41 1015.36 1015.38 1015.45 1015.54 1015.63 1015.70 1015.71 1015.66 1015.57 1015.43 1015.28 1015.12 1014.97
1011.76 1012.31 1012.97 1013.67 1014.33 1014.87 1015.21 1015.35 1015.27 1015.03 1014.70 1014.34 1014.02 1013.80 1013.69 1013.69 1013.78 1013.93 1014.10 1014.27 1014.43 1014.59 1014.75 1014.93 1015.14 1015.37 1015.60 1015.82 1016.00 1016.10 1016.13 1016.07 1015.95 1015.80 1015.65 1015.53 1015.46 1015.44 1015.46 1015.49 1015.52 1015.52 1015.47 1015.37 1015.22 1015.05 1014.87 1014.71 1014.56
1011.80 1012.38 1013.05 1013.74 1014.36 1014.82 1015.08 1015.12 1014.96 1014.64 1014.24 1013.85 1013.53 1013.33 1013.27 1013.33 1013.49 1013.70 1013.94 1014.16 1014.37 1014.55 1014.74 1014.92 1015.14 1015.37 1015.60 1015.83 1016.01 1016.13 1016.17 1016.13 1016.03 1015.88 1015.73 1015.59 1015.49 1015.43 1015.41 1015.39 1015.37 1015.31 1015.21 1015.05 1014.87 1014.67 1014.47 1014.30 1014.16
1011.91 1012.50 1013.16 1013.82 1014.38 1014.77 1014.94 1014.89 1014.65 1014.26 1013.83 1013.42 1013.11 1012.93 1012.91 1013.03 1013.26 1013.54 1013.84 1014.11 1014.35 1014.56 1014.75 1014.93 1015.12 1015.33 1015.55 1015.76 1015.93 1016.05 1016.10 1016.07 1015.98 1015.85 1015.70 1015.55 1015.43 1015.34 1015.28 1015.22 1015.14 1015.04 1014.90 1014.72 1014.51 1014.29 1014.08 1013.90 1013.76
1012.07 1012.64 1013.26 1013.86 1014.34 1014.65 1014.74 1014.62 1014.31 1013.88 1013.43 1013.02 1012.73 1012.60 1012.64 1012.82 1013.12 1013.46 1013.81 1014.13 1014.40 1014.61 1014.79 1014.95 1015.11 1015.28 1015.46 1015.63 1015.78 1015.88 1015.93 1015.90 1015.82 1015.70 1015.55 1015.40 1015.27 1015.16 1015.06 1014.96 1014.86 1014.72 1014.56 1014.36 1014.14 1013.91 1013.70 1013.51 1013.37
1012.19 1012.72 1013.27 1013.79 1014.18 1014.41 1014.42 1014.24 1013.89 1013.45 1013.01 1012.63 1012.39 1012.32 1012.42 1012.67 1013.02 1013.43 1013.83 1014.18 1014.47 1014.69 1014.85 1014.98 1015.10 1015.22 1015.34 1015.47 1015.58 1015.65 1015.68 1015.66 1015.58 1015.46 1015.31 1015.16 1015.02 1014.88 1014.76 1014.64 1014.51 1014.36 1014.18 1013.98 1013.76 1013.53 1013.32 1013.13 1012.97
1012.23 1012.68 1013.14 1013.55 1013.85 1013.98 1013.93 1013.70 1013.35 1012.93 1012.52 1012.20 1012.02 1012.02 1012.19 1012.51 1012.93 1013.39 1013.83 1014.21 1014.52 1014.74 1014.89 1015.00 1015.07 1015.14 1015.22 1015.29 1015.36 1015.40 1015.41 1015.37 1015.28 1015.16 1015.02 1014.86 1014.71 1014.56 1014.41 1014.27 1014.12 1013.96 1013.78 1013.58 1013.36 1013.14 1012.93 1012.73 1012.56
1012.15 1012.50 1012.84 1013.13 1013.32 1013.37 1013.26 1013.01 1012.67 1012.29 1011.94 1011.70 1011.61 1011.69 1011.93 1012.32 1012.79 1013.29 1013.76 1014.18 1014.50 1014.73 1014.87 1014.96 1015.01 1015.05 1015.08 1015.11 1015.14 1015.15 1015.13 1015.08 1014.99 1014.86 1014.71 1014.54 1014.38 1014.21 1014.05 1013.88 1013.72 1013.54 1013.35 1013.15 1012.93 1012.72 1012.50 1012.30 1012.10
Thickness
5828 5831 5833 5827 5819 5819 5814 5820 5829 5831 5838 5848 5850 5846 5839 5832 5824 5814 5831 5841 5837 5832 5821 5810 5805 5802 5799 5796 5794 5791 5788 5785 5782 5779 5776 5773 5771 5768 5766 5765 5763 5761 5760 5758 5757 5756 5755 5754 5753
5834 5833 5828 5823 5814 5810 5810 5823 5824 5831 5842 5850 5850 5845 5839 5831 5832 5829 5832 5835 5833 5827 5818 5810 5802 5798 5795 5793 5790 5787 5784 5781 5778 5776 5773 5771 5768 5766 5764 5762 5761 5759 5758 5757 5755 5755 5753 5752 5751
5833 5831 5822 5818 5812 5809 5809 5822 5827 5838 5848 5847 5843 5843 5835 5825 5828 5829 5833 5832 5829 5823 5816 5807 5798 5794 5791 5788 5786 5783 5781 5778 5775 5772 5770 5767 5765 5763 5761 5759 5758 5757 5756 5755 5753 5752 5751 5750 5749
5830 5824 5819 5811 5806 5814 5816 5824 5832 5835 5841 5845 5842 5833 5831 5827 5830 5832 5831 5830 5825 5819 5813 5803 5795 5790 5787 5784 5782 5779 5776 5774 5771 5769 5766 5764 5762 5760 5758 5757 5755 5754 5753 5752 5751 5750 5749 5748 5747
5826 5818 5809 5806 5807 5816 5824 5829 5833 5830 5831 5838 5839 5828 5821 5824 5830 5829 5827 5825 5821 5817 5811 5799 5791 5787 5783 5780 5777 5775 5772 5770 5768 5766 5763 5761 5759 5757 5756 5754 5753 5752 5750 5749 5748 5747 5746 5745 5744
5816 5813 5801 5801 5804 5812 5822 5829 5830 5828 5829 5834 5834 5825 5815 5820 5822 5822 5823 5820 5819 5814 5807 5795 5787 5783 5779 5776 5773 5771 5769 5767 5764 5762 5760 5758 5756 5755 5753 5752 5750 5749 5748 5747 5746 5745 5743 5742 5741
5807 5803 5797 5798 5797 5803 5814 5825 5823 5822 5822 5828 5834 5822 5813 5813 5817 5818 5816 5815 5814 5809 5802 5792 5785 5779 5774 5771 5769 5767 5766 5764 5762 5759 5757 5755 5754 5752 5751 5750 5748 5747 5746 5745 5743 5742 5741 5740 5739
5809 5800 5795 5796 5792 5797 5813 5819 5823 5822 5819 5830 5831 5819 5809 5809 5813 5811 5808 5807 5804 5801 5796 5789 5784 5778 5773 5769 5765 5763 5762 5760 5758 5756 5755 5753 5751 5750 5749 5748 5746 5744 5743 5742 5741 5740 5739 5738 5737
5801 5788 5787 5791 5791 5797 5810 5810 5819 5827 5822 5820 5822 5821 5819 5813 5809 5802 5797 5794 5792 5790 5788 5784 5780 5775 5771 5769 5764 5761 5758 5756 5754 5753 5752 5750 5751 5750 5748 5747 5744 5741 5740 5739 5738 5738 5737 5736 5735
5791 5782 5787 5794 5797 5798 5803 5805 5810 5813 5810 5808 5807 5808 5809 5807 5803 5796 5791 5787 5783 5781 5780 5778 5776 5772 5768 5766 5762 5759 5757 5754 5752 5752 5750 5748 5748 5747 5747 5744 5741 5738 5737 5736 5736 5735 5734 5734 5736
5787 5781 5787 5793 5799 5798 5798 5801 5807 5803 5798 5799 5795 5796 5800 5799 5797 5792 5788 5785 5780 5777 5775 5773 5770 5767 5764 5761 5758 5755 5752 5750 5749 5747 5745 5743 5743 5743 5743 5741 5739 5736 5735 5735 5735 5734 5735 5735 5736
5781 5784 5786 5789 5795 5794 5793 5796 5795 5793 5791 5797 5798 5796 5794 5791 5789 5786 5781 5778 5775 5772 5769 5768 5765 5761 5757 5755 5754 5750 5748 5745 5744 5741 5739 5739 5739 5738 5738 5736 5735 5734 5733 5732 5732 5732 5733 5732 5732
5778 5781 5787 5790 5792 5792 5791 5788 5784 5781 5787 5791 5790 5787 5785 5784 5782 5780 5779 5775 5770 5765 5763 5762 5759 5756 5752 5749 5746 5745 5742 5740 5738 5735 5734 5733 5733 5733 5732 5731 5728 5729 5729 5729 5728 5729 5729 5729 5729
5783 5782 5784 5787 5787 5786 5781 5779 5777 5772 5780 5779 5778 5777 5776 5774 5772 5771 5770 5766 5764 5762 5759 5757 5752 5749 5746 5742 5739 5737 5736 5733 5732 5730 5729 5727 5728 5728 5728 5727 5725 5725 5725 5725 5725 5725 5724 5725 5726
5783 5776 5781 5784 5782 5781 5779 5766 5763 5767 5771 5768 5767 5767 5766 5765 5765 5763 5762 5761 5760 5757 5754 5750 5746 5743 5740 5737 5734 5733 5731 5729 5728 5726 5725 5723 5724 5723 5723 5723 5722 5721 5721 5720 5721 5721 5721 5722 5723
5780 5774 5772 5777 5778 5777 5770 5753 5756 5763 5763 5758 5758 5757 5757 5756 5757 5757 5756 5754 5753 5751 5746 5744 5744 5738 5735 5732 5730 5729 5728 5726 5724 5723 5721 5719 5718 5718 5717 5718 5717 5716 5716 5717 5717 5717 5718 5718 5718
5774 5770 5769 5770 5774 5772 5766 5752 5751 5758 5756 5750 5750 5751 5750 5748 5748 5749 5750 5749 5747 5744 5740 5738 5736 5733 5731 5729 5727 5725 5723 5722 5720 5718 5717 5715 5713 5712 5712 5712 5711 5710 5711 5711 5712 5713 5712 5713 5714
5766 5768 5766 5763 5767 5764 5758 5750 5749 5751 5750 5745 5744 5744 5742 5740 5740 5742 5742 5743 5742 5739 5736 5733 5731 5728 5727 5726 5723 5722 5720 5718 5716 5714 5711 5709 5708 5706 5706 5706 5704 5704 5705 5704 5704 5702 5704 5705 5707
5769 5765 5761 5759 5763 5758 5750 5744 5743 5745 5743 5739 5737 5736 5736 5734 5736 5736 5736 5737 5736 5734 5731 5729 5727 5724 5723 5722 5720 5717 5716 5714 5712 5710 5706 5704 5702 5700 5698 5699 5697 5697 5698 5696 5697 5697 5697 5699 5702
5767 5761 5759 5756 5757 5752 5745 5738 5741 5740 5738 5737 5734 5732 5731 5731 5730 5730 5731 5732 5732 5730 5728 5726 5723 5721 5719 5717 5715 5712 5711 5710 5707 5705 5700 5697 5695 5692 5693 5690 5691 5691 5689 5688 5689 5688 5689 5692 5694
5767 5763 5759 5753 5750 5751 5743 5734 5735 5736 5737 5736 5734 5733 5733 5730 5729 5729 5729 5729 5730 5727 5725 5725 5721 5717 5715 5712 5711 5707 5704 5702 5701 5697 5695 5691 5687 5685 5683 5683 5683 5683 5683 5684 5682 5681 5680 5682 5686
5763 5768 5763 5754 5746 5743 5742 5728 5734 5736 5733 5731 5731 5731 5732 5731 5730 5730 5728 5727 5727 5726 5725 5721 5717 5714 5710 5707 5705 5701 5697 5695 5692 5689 5688 5684 5681 5679 5677 5676 5675 5674 5676 5676 5675 5678 5676 5674 5676
5765 5767 5763 5758 5751 5744 5743 5737 5734 5738 5730 5732 5734 5734 5733 5732 5731 5729 5729 5728 5727 5726 5723 5719 5715 5710 5706 5703 5699 5695 5693 5691 5689 5685 5681 5677 5677 5673 5671 5669 5667 5666 5667 5668 5666 5666 5667 5669 5669
5768 5763 5759 5757 5756 5735 5737 5735 5731 5739 5736 5736 5737 5736 5735 5734 5733 5731 5731 5729 5726 5725 5722 5718 5711 5706 5702 5698 5695 5690 5686 5682 5679 5676 5674 5673 5672 5669 5666 5663 5660 5659 5660 5659 5658 5658 5659 5659 5660
5765 5756 5745 5740 5738 5734 5740 5736 5736 5746 5747 5744 5740 5739 5738 5737 5734 5732 5730 5727 5725 5722 5718 5714 5708 5702 5698 5694 5690 5685 5681 5677 5673 5670 5669 5665 5665 5663 5659 5656 5652 5651 5651 5650 5650 5651 5651 5652 5651
5764 5759 5740 5727 5731 5738 5738 5735 5745 5752 5751 5749 5746 5743 5740 5738 5736 5733 5731 5728 5725 5720 5715 5710 5704 5698 5694 5690 5685 5680 5676 5675 5672 5666 5662 5660 5658 5656 5652 5648 5646 5644 5643 5643 5643 5644 5644 5645 5644
5760 5760 5763 5749 5744 5737 5741 5742 5748 5750 5747 5746 5744 5742 5740 5739 5737 5734 5731 5728 5723 5718 5713 5708 5701 5695 5690 5686 5681 5676 5672 5668 5664 5659 5657 5656 5652 5649 5646 5643 5640 5639 5637 5636 5634 5636 5635 5636 5636
5770 5765 5755 5747 5729 5729 5735 5737 5742 5743 5745 5747 5745 5744 5743 5741 5737 5733 5729 5724 5720 5715 5710 5705 5699 5692 5687 5682 5678 5675 5669 5664 5659 5656 5651 5647 5644 5641 5639 5637 5634 5632 5631 5629 5628 5628 5629 5628 5628
5758 5757 5755 5752 5747 5736 5729 5739 5761 5756 5755 5752 5751 5750 5746 5742 5738 5732 5727 5722 5717 5712 5707 5701 5695 5689 5684 5679 5674 5669 5665 5661 5656 5652 5648 5644 5640 5636 5633 5631 5628 5626 5624 5623 5621 5620 5620 5620 5620
5766 5761 5755 5741 5737 5740 5741 5745 5768 5765 5763 5759 5755 5752 5748 5743 5738 5732 5726 5719 5714 5709 5703 5698 5692 5686 5681 5676 5670 5666 5661 5656 5652 5649 5644 5639 5635 5632 5629 5626 5623 5620 5618 5615 5613 5612 5613 5612 5612